Location: Bittelbronn
(48.4454°N, 8.5870°E)
Time: 13:31:52
(UTC+00:00)

SJ 16-02 - Pass Details

Date: 27 April 2025
Orbit: 587 x 597 km, 75.0° (Epoch: 15 May)

Event Time Altitude Azimuth Distance (km) Brightness Sun altitude
Rises 19:18:27 0° 332° (NNW) 2,851 5.9 -7.3°
Reaches altitude 10° 19:20:47 10° 325° (NW) 1,945 5.2 -7.7°
Maximum altitude 19:24:49 39° 257° (WSW) 899 2.6 -8.2°
Drops below altitude 10° 19:28:50 10° 188° (S) 1,931 3.7 -8.8°
Sets 19:31:09 0° 180° (S) 2,828 4.4 -9.1°
